Location: Unspecified
(0.0000°N, 0.0000°E)
Time: 06:28:52
(UTC+00:00)

N. Korean satellite - Pass Details

Date: 19 June 2019
Orbit: 455 x 508 km, 97.2° (Epoch: 15 September)

Event Time Altitude Azimuth Distance (km) Brightness Sun altitude
Rises 18:34:08 0° 205° (SSW) 2,572 10.3 -7.5°
Reaches altitude 10° 18:37:47 10° 244° (WSW) 1,670 9.9 -8.3°
Maximum altitude 18:38:39 11° 258° (WSW) 1,622 10.1 -8.5°
Drops below altitude 10° 18:39:31 10° 272° (W) 1,661 10.6 -8.7°
Sets 18:43:06 0° 312° (NW) 2,518 11.8 -9.6°
